Regional Weather Roundup
Issued by NWS

Home | Current Version | Previous Version | Text Only | Print | Product List | Glossary On
Versions: 1 2 3 4 5 6 7 8 9 10 11 12 13 14 15 16 17 18 19 20 21 22 23 24 25 26 27 28 29 30 31 32 33 34 35 36 37 38 39 40 41 42 43 44 45 46 47 48 49 50
476
ASUS44 KJAN 162203
RWRMS

MISSISSIPPI HOURLY WEATHER ROUNDUP
NATIONAL WEATHER SERVICE JACKSON MS
500 PM CDT WED APR 16 2014

NOTE: "FAIR: INDICATES FEW OR NO CLOUDS BELOW 12,000 FEET WITH NO
SIGNIFICANT WEATHER AND/OR OBSTRUCTIONS TO VISIBILITY.

MSZ001>002-007>008-010>013-018>021-025>028-034>036-162300-
NORTHWEST MISSISSIPPI

CITY           SKY/WX    TMP DP  RH WIND       PRES   REMARKS
CLARKSDALE       N/A     59  32  36 CALM      30.15F
CLEVELAND      FAIR      59  37  43 SE7       30.13F
GREENWOOD      SUNNY     65  29  25 CALM      30.12S
GREENVILLE     SUNNY     59  34  39 SE3       30.13F
GRENADA        FAIR      63  30  29 CALM      30.12F
OLIVE BRANCH   PTSUNNY   61  28  29 SE5       30.12F
OXFORD         FAIR      63  25  23 CALM      30.14F
TUNICA         PTCLDY    61  32  33 S3        30.13F
$$

MSZ003>006-009-014>017-022>024-029>033-037>039-162300-
NORTHEAST MISSISSIPPI

CITY           SKY/WX    TMP DP  RH WIND       PRES   REMARKS
BELMONT        FAIR      64  28  25 S5        30.13F
COLUMBUS AFB   SUNNY     66  28  24 VRB2      30.14F
CORINTH        FAIR      63  23  22 S6        30.14F
GOLDN TRIANGLE SUNNY     63  34  34 S7        30.17F
STARKVILLE     FAIR      63  32  31 SE7       30.13F
TUPELO         SUNNY     63  28  26 CALM      30.13F
$$

MSZ040-058-162300-
CENTRAL MISSISSIPPI

CITY           SKY/WX    TMP DP  RH WIND       PRES   REMARKS
JACKSON INTL   SUNNY     66  30  26 CALM      30.11F
JACKSON HAWKNS SUNNY     66  30  26 VRB5      30.12F
MERIDIAN KEY   SUNNY     65  27  23 VRB3      30.12F
MERIDIAN NAS   SUNNY     65  31  28 CALM      30.13F
RAYMOND        FAIR      64  59  82 SE5       30.12S
VICKSBURG      MOSUNNY   63  33  32 CALM      30.13S
$$

MSZ059>079-162300-
SOUTH MISSISSIPPI

CITY           SKY/WX    TMP DP  RH WIND       PRES   REMARKS
BROOKHAVEN     FAIR      64  34  32 CALM      30.13F
COLUMBIA       FAIR      64  32  29 MISG      30.12S
HATTIESBURG    SUNNY     67  31  26 SE5       30.13F
MCCOMB         SUNNY     64  32  30 SE7       30.11F
NATCHEZ        MOSUNNY   64  36  34 SE8       30.11S
PINE BELT      SUNNY     64  30  27 SE7       30.14S
$$

MSZ080>082-162300-
COASTAL MISSISSIPPI

CITY           SKY/WX    TMP DP  RH WIND       PRES   REMARKS
BAY ST LOUIS   SUNNY     61  37  41 SE10      30.15R
BILOXI         SUNNY     58  42  55 S8        30.15S
PASCAGOULA     SUNNY     61  42  49 S8        30.15S
GULFPORT       SUNNY     59  41  51 S9        30.15S
$$



USA.gov is the U.S. government's official web portal to all federal, state and local government web resources and services.